Spencer, WI

12:50 AM CDT on April 21, 2015 (GMT -0500)
Taylor County | | Change Station
CLOSE
Current Station
Airport
Location: Medford,
Elevation: 1470 ft
Nearby Weather Stations

Elev 1470 ft 45.10 °N, 90.30 °W | Updated 15 minutes ago

Overcast
Overcast
32 °F
Feels Like 22 °F
N
14
Wind Variable Wind from West
Gusts 20 mph

Today
High -- | Low -- °F
--% Chance of Precip.
Yesterday
High -- | Low -- °F
Precip. -- in
6:07 AM 7:53 PM
Waxing Crescent, 8% visible
Pressure 29.40 in
Visibility 7.0 miles
Clouds Mostly Cloudy 1200 ft
Overcast 2100 ft
Windchill 22 °F
Dew Point 30 °F
Humidity 92%
Rainfall 0.00 in
Snow Depth Not available.
UV 0 out of 12
Pollen 7.50 out of 12
Air Quality Not available.
Flu Activity Local Activity
METAR KMDZ 210535Z AUTO 27012G17KT 7SM -SN BKN012 OVC021 00/M01 A2940 RMK AO2 T00011011

More Conditions Fewer Conditions

Pressure 29.40 in
Visibility 7.0 miles
Clouds Mostly Cloudy 1200 ft
Overcast 2100 ft
Windchill 22 °F
Dew Point 30 °F
Humidity 92%
Rainfall 0.00 in
Snow Depth Not available.
UV 0 out of 12
Pollen 7.50 out of 12
Air Quality Not available.
Flu Activity Local Activity
METAR KMDZ 210535Z AUTO 27012G17KT 7SM -SN BKN012 OVC021 00/M01 A2940 RMK AO2 T00011011

More Conditions Fewer Conditions

10-Day Weather Forecast

Almanac

Astronomy

Apr. 21, 2015 Rise Set
Actual Time
Civil Twilight
Nautical Twilight
Astronomical Twilight
Moon
Length of Visible Light
Length of Day
Tomorrow will be .
, % of the Moon is Illuminated

Today's Extremes

State Highs State Lows

Community

WunderPhotos

Upload Photos

1,815,316 photos uploaded!

WunderBlogs® & News

Nearby

Air Quality

  Air Quality AQ Index Pollutant
Not available.

Snow Depth

Station Depth Elevation

Earthquake Activity

City Distance Mag. Time & Date
Minimum magnitude displayed is 2.5.

Coastal Water Temperatures

Place Temperature

Stations

Nearby Weather Stations

Station Location Temp. Windchill Dew Point Humidity Wind Precip. Elev Updated Type